默认 日期 大小 文件数 浏览量 最新下载 xml
arts磁力链接相关资源由用户搜索指令自动获取,结果来源于网络,本站不存储任何资料,亦不承担任何责任,请于24小时内删除,搜索到4844个磁力,显示前4000条数据,用时6ms。
    ... "Spike and chain Japanese fighting arts.pdf": 11260556, "[Adele_Westbrook,_Oscar_Ratti]_Aikido ... Combat.pdf": 5099900, "eBook - Martial Arts - Fitness Training.pdf": 126253, " ... Sword Techniques Traditional Japanese Martial Arts.pdf": 29442558, "Mastering the ...
创建时间: 2018-12-24 01:11:07 大小:1.49 GB 文件数量:101 热度:7 最近下载:2025-03-25 06:02:02
    {"04 Coses de nens.mp3": 5649122, "03 Tren Transsiberia.mp3": 5291050, "01 L'Antartida es freda.mp3": 7097060, "02 Doctorat en romanic medieval.mp3": 6710192, "05 Tintin al Congo (bonus track).mp3": 7937152}
创建时间: 2018-12-24 01:58:20 大小:31.17 MB 文件数量:5 热度:7 最近下载:2025-02-10 17:44:02
    {"01.jpg": 407171, "02.jpg": 291125, "03.jpg": 18559, "04.jpg": 582112, "05.jpg": 572200, "06.jpg": 563714, "07.jpg": 622534, "08.jpg": 640426, "09.jpg": 633607, "10.jpg": 595523, "11.jpg": 609500, "12.jpg": 636609, "13.jpg": 591728, "14.jpg": 642767, "15. ...
创建时间: 2018-12-24 01:59:06 大小:10.45 MB 文件数量:22 热度:37 最近下载:2025-08-02 11:53:06
    {"Info": {"Info.Alice.Madness Returns + 2 DLC.txt": 8381}, "soft.bin": 5190236, "setup.exe": 760927, "game-1.bin": 3416166967, "game-2.bin": 53163656, "game-3.bin": 16251567, "autorun.inf": 78, "setup-1.bin": 3563513, "video-1x.bin": 951762249}
创建时间: 2018-12-24 02:14:15 大小:4.14 GB 文件数量:9 热度:9 最近下载:2025-03-26 05:26:04
    ... Demonoid.com.txt": 47, "Synchro Arts VocALign Pro 4.1.5 ...
创建时间: 2018-12-24 02:15:49 大小:24.37 MB 文件数量:7 热度:6 最近下载:2025-02-26 13:49:01
    {"Important - Read me ENG.txt": 87, "Madden.NFL.11.Electronic.Arts.DEVIANCE.PC.GAMES.zip": 735051988}
创建时间: 2018-12-24 03:24:21 大小:701 MB 文件数量:2 热度:10 最近下载:2025-01-20 04:49:01
    {"Info": {"Info.Crysis.v 2.0.0.7.txt": 10172}, "soft.bin": 26082514, "setup.exe": 4387418, "game-1.bin": 4002510, "game-2.bin": 1789314673, "game-3.bin": 3864278090, "autorun.inf": 65}
创建时间: 2018-12-24 04:24:34 大小:5.3 GB 文件数量:7 热度:9 最近下载:2025-03-25 06:08:01
    {"Quilting Arts – December-January 2019.pdf": 14073089}
创建时间: 2018-12-24 05:18:10 大小:13.42 MB 文件数量:1 热度:6 最近下载:2025-03-25 06:27:02
    {"cover.jpg": 22397, "metadata.opf": 1270, "Imagination and the Arts in C.S - Peter J. Schakel.pdf": 1183763}
创建时间: 2018-12-24 05:50:14 大小:1.15 MB 文件数量:3 热度:9 最近下载:2025-02-14 08:52:01
    ... ] (David Wheatley - BBC - R.M Arts) [VHS-Rip].mkv": 1850512024, "1983 ... ] (David Wheatley - BBC - R.M Arts) [VHS-Rip].nfo": 10181}
创建时间: 2018-12-24 06:34:29 大小:1.72 GB 文件数量:5 热度:12 最近下载:2025-09-18 23:03:17
    ... ": 34551478}, "Special": {"Covers": {"Computer Arts - Book of Inspiration.jpg": 344266 ... ": 114568401}, "Collection": {"Covers": {"Computer Arts - Branding 2012.jpg": 185561, "Computer ... Annual 2014.jpg": 245944}, "Computer Arts - Branding 2012.pdf": 140237592, ...
创建时间: 2018-12-24 07:25:43 大小:3.8 GB 文件数量:212 热度:9 最近下载:2025-02-21 03:48:03
    ... jpg": 37504}, "Martial Arts Dojo": {"IM00019776-01_MartialArtsDojo.zip ... Templates_19776_MartialArtsDojo.zip": 15721917}, "Martial Arts Dojo Lights": {"IM00019778-01_MartialArtsDojoLights. ... jpg": 62960}, "Martial Arts Dojo Interior": {"IM00019777- ...
创建时间: 2018-12-24 07:27:10 大小:272.52 MB 文件数量:11 热度:7 最近下载:2024-12-01 17:30:01
    {"01.jpg": 380803, "02.jpg": 300078, "03.jpg": 447680, "04.jpg": 400502, "05.jpg": 379759, "06.jpg": 484131, "07.jpg": 435906, "08.jpg": 387895, "09.jpg": 451350, "10.jpg": 407021, "11.jpg": 437940, "12.jpg": 368912, "13.jpg": 399011, "14.jpg": 416783, "15 ...
创建时间: 2018-12-24 07:30:39 大小:9.17 MB 文件数量:25 热度:10 最近下载:2025-04-13 10:43:02
    {"superunitedkingdom - readme.txt": 7618, "KngFTChJnrFbrr2017 - superunitedkingdom.pdf": 41281306, "Black_Belt_JuneJuly_2017 - superunitedkingdom.pdf": 27711438, "Blitz_AugustSeptember_2017 - superunitedkingdom.pdf": 20444381, "Black_Belt_-_April-May_2017 ...
创建时间: 2018-12-24 07:44:14 大小:564.89 MB 文件数量:17 热度:6 最近下载:2023-04-13 23:50:12
    ... .sexinsex.net@ꎵ� Sexual Arts �ȿڤߤ椭 ɽ�ڤꤨ.wmv ...
创建时间: 2018-12-24 09:11:50 大小:761 MB 文件数量:21 热度:11 最近下载:2023-04-14 01:40:01
    {"Torrent downloaded from demonoid.pw.txt": 46, "Torrent downloaded from AhaShare.com.txt": 59, "Popular Woodworking's Arts & Crafts Furniture Projects (2nd Ed)(gnv64).pdf": 31286620}
创建时间: 2018-12-24 09:20:35 大小:29.84 MB 文件数量:3 热度:12 最近下载:2024-12-10 15:41:03
    {"Madden.NFL.12.Electronic.Arts.DEVIANCE.PC.GAMES.txt": 1880, "Madden.NFL.12.Electronic.Arts.DEVIANCE.PC.GAMES.zip": 735051988}
创建时间: 2018-12-24 09:27:20 大小:701 MB 文件数量:2 热度:12 最近下载:2025-02-23 20:54:02
    {"[DPAFG]Le.Pont.Des.Arts.FRENCH.DVDRiP.REPACK.1CD.XViD- ... ": 733241344, "[DPAFG]Le.Pont.Des.Arts.FRENCH.DVDRiP.REPACK.1CD.XViD ... ": 69198, "[DPAFG]Le.Pont.Des.Arts.FRENCH.DVDRiP.REPACK.1CD.XViD ...
创建时间: 2018-12-24 09:43:30 大小:699.34 MB 文件数量:3 热度:9 最近下载:2025-08-04 18:05:13
    {"More Books.txt": 2922, "Practice Pads.pdf": 241641, "Important. Read me .url": 238, "Torrent downloaded from Demonoid.com.txt": 49, "Pressure Point Charts - Black Arts Society.pdf": 260115}
创建时间: 2018-12-24 10:02:14 大小:493.13 KB 文件数量:5 热度:12 最近下载:2025-02-27 11:59:02
    {"Your Book": {"(Ebook Martial Arts) Aikido - Pressure Points.pdf": 21394}, "READ ME.txt": 199, "Link to Ebook Store - FREE e-books for all.url": 120}
创建时间: 2018-12-24 10:21:14 大小:21.2 KB 文件数量:3 热度:12 最近下载:2025-08-04 05:57:08